Time,TemperatureF,DewpointF,PressureIn,WindDirection,WindDirectionDegrees,WindSpeedMPH,WindSpeedGustMPH,Humidity,HourlyPrecipIn,Conditions,Clouds,dailyrainin,SoftwareType,DateUTC
2013-05-01 00:02:00,60.0,41.0,28.57,East,97,1.0,2.0,49,0.00,,,0.20,,2013-05-01 05:02:00,
2013-05-01 00:11:00,60.0,41.0,28.57,East,97,1.0,2.0,49,0.00,,,0.20,,2013-05-01 05:11:00,
2013-05-01 00:21:00,59.0,40.0,28.59,West,260,1.0,1.0,49,0.00,,,0.20,,2013-05-01 05:21:00,
2013-05-01 00:32:00,59.0,40.0,28.59,ENE,73,1.0,2.0,49,0.00,,,0.20,,2013-05-01 05:32:00,
2013-05-01 00:42:00,58.0,39.0,28.61,NE,45,1.0,2.0,50,0.00,,,0.20,,2013-05-01 05:42:00,
2013-05-01 00:52:00,58.0,39.0,28.61,NE,45,1.0,2.0,50,0.00,,,0.20,,2013-05-01 05:52:00,
2013-05-01 01:02:00,58.0,39.0,28.59,West,278,0.0,2.0,50,0.00,,,0.20,,2013-05-01 06:02:00,
2013-05-01 01:12:00,58.0,39.0,28.59,West,278,0.0,2.0,50,0.00,,,0.20,,2013-05-01 06:12:00,
2013-05-01 01:22:00,58.0,39.0,28.61,West,259,0.0,0.0,50,0.00,,,0.14,,2013-05-01 06:22:00,
2013-05-01 01:32:00,57.0,39.0,28.62,NE,45,0.0,0.0,50,0.00,,,0.14,,2013-05-01 06:32:00,
2013-05-01 01:42:00,57.0,39.0,28.62,NE,45,0.0,0.0,50,0.00,,,0.14,,2013-05-01 06:42:00,
2013-05-01 01:52:00,57.0,39.0,28.64,North,8,0.0,1.0,51,0.00,,,0.14,,2013-05-01 06:52:00,
2013-05-01 02:01:00,57.0,39.0,28.64,NW,326,0.0,3.0,51,0.00,,,0.14,,2013-05-01 07:01:00,
2013-05-01 02:11:00,57.0,39.0,28.64,NW,326,0.0,3.0,51,0.00,,,0.14,,2013-05-01 07:11:00,
2013-05-01 02:21:00,56.0,38.0,28.64,SE,135,1.0,1.0,50,0.00,,,0.14,,2013-05-01 07:21:00,
2013-05-01 02:32:00,56.0,38.0,28.66,WSW,256,1.0,1.0,50,0.00,,,0.14,,2013-05-01 07:32:00,
2013-05-01 02:42:00,56.0,38.0,28.66,WSW,256,1.0,1.0,50,0.00,,,0.14,,2013-05-01 07:42:00,
2013-05-01 02:52:00,56.0,38.0,28.68,West,259,0.0,1.0,50,0.00,,,0.14,,2013-05-01 07:52:00,
2013-05-01 03:02:00,56.0,38.0,28.68,West,259,0.0,1.0,50,0.00,,,0.14,,2013-05-01 08:02:00,
2013-05-01 03:12:00,56.0,38.0,28.68,West,259,0.0,1.0,50,0.00,,,0.14,,2013-05-01 08:12:00,
2013-05-01 03:22:00,55.0,37.0,28.69,East,83,1.0,1.0,51,0.00,,,0.14,,2013-05-01 08:22:00,
2013-05-01 03:32:00,55.0,37.0,28.69,WSW,248,0.0,1.0,51,0.00,,,0.14,,2013-05-01 08:32:00,
2013-05-01 03:42:00,55.0,37.0,28.69,WSW,248,0.0,1.0,51,0.00,,,0.14,,2013-05-01 08:42:00,
2013-05-01 03:53:00,54.0,36.0,28.68,SW,225,0.0,1.0,51,0.00,,,0.14,,2013-05-01 08:53:00,
2013-05-01 04:01:00,54.0,36.0,28.68,SW,225,0.0,1.0,51,0.00,,,0.14,,2013-05-01 09:01:00,
2013-05-01 04:12:00,54.0,36.0,28.68,SW,225,0.0,1.0,51,0.00,,,0.14,,2013-05-01 09:12:00,
2013-05-01 04:21:00,54.0,36.0,28.70,WSW,248,1.0,1.0,51,0.00,,,0.14,,2013-05-01 09:21:00,
2013-05-01 04:33:00,54.0,36.0,28.71,ENE,68,0.0,0.0,51,0.00,,,0.14,,2013-05-01 09:33:00,
2013-05-01 04:43:00,54.0,36.0,28.71,ENE,68,0.0,0.0,51,0.00,,,0.14,,2013-05-01 09:43:00,
2013-05-01 04:53:00,54.0,36.0,28.69,North,0,0.0,0.0,51,0.00,,,0.14,,2013-05-01 09:53:00,
2013-05-01 05:03:00,54.0,36.0,28.71,SSW,203,0.0,0.0,51,0.00,,,0.14,,2013-05-01 10:03:00,
2013-05-01 05:12:00,54.0,36.0,28.71,SSW,203,0.0,0.0,51,0.00,,,0.14,,2013-05-01 10:12:00,
2013-05-01 05:22:00,54.0,36.0,28.71,SSW,203,0.0,0.0,51,0.00,,,0.14,,2013-05-01 10:22:00,
2013-05-01 05:33:00,54.0,36.0,28.71,SSW,203,0.0,0.0,51,0.00,,,0.14,,2013-05-01 10:33:00,
2013-05-01 05:42:00,54.0,36.0,28.71,SSW,203,0.0,0.0,51,0.00,,,0.14,,2013-05-01 10:42:00,
2013-05-01 09:32:00,54.0,36.0,28.72,WSW,251,1.0,1.0,51,0.00,,,0.14,,2013-05-01 14:32:00,
2013-05-01 09:42:00,54.0,36.0,28.72,WSW,251,1.0,1.0,51,0.00,,,0.14,,2013-05-01 14:42:00,
2013-05-01 09:52:00,50.0,34.0,28.88,West,275,0.0,2.0,55,0.00,,,0.14,,2013-05-01 14:52:00,
2013-05-01 10:01:00,52.0,36.0,28.88,North,8,0.0,1.0,55,0.00,,,0.14,,2013-05-01 15:01:00,
2013-05-01 10:11:00,52.0,36.0,28.88,North,8,0.0,1.0,55,0.00,,,0.14,,2013-05-01 15:11:00,
2013-05-01 10:21:00,55.0,39.0,28.89,WSW,243,0.0,1.0,54,0.00,,,0.14,,2013-05-01 15:21:00,
2013-05-01 10:33:00,57.0,41.0,28.90,NNW,338,0.0,1.0,54,0.00,,,0.14,,2013-05-01 15:33:00,
2013-05-01 10:43:00,57.0,41.0,28.90,NNW,338,0.0,1.0,54,0.00,,,0.14,,2013-05-01 15:43:00,
2013-05-01 10:53:00,59.0,42.0,28.90,WSW,248,0.0,1.0,53,0.00,,,0.14,,2013-05-01 15:53:00,
2013-05-01 11:03:00,60.0,42.0,28.92,WSW,248,0.0,0.0,52,0.00,,,0.14,,2013-05-01 16:03:00,
2013-05-01 11:12:00,60.0,42.0,28.92,WSW,248,0.0,0.0,52,0.00,,,0.14,,2013-05-01 16:12:00,
2013-05-01 11:22:00,61.0,43.0,28.91,SW,214,0.0,1.0,51,0.00,,,0.14,,2013-05-01 16:22:00,
2013-05-01 11:32:00,63.0,44.0,28.93,WNW,293,0.0,0.0,49,0.00,,,0.14,,2013-05-01 16:32:00,
2013-05-01 11:42:00,63.0,44.0,28.93,WNW,293,0.0,0.0,49,0.00,,,0.14,,2013-05-01 16:42:00,
2013-05-01 11:53:00,64.0,43.0,28.93,WSW,254,1.0,1.0,47,0.00,,,0.14,,2013-05-01 16:53:00,
2013-05-01 12:02:00,66.0,40.0,28.93,West,269,1.0,1.0,39,0.00,,,0.14,,2013-05-01 17:02:00,
2013-05-01 12:12:00,66.0,40.0,28.93,West,269,1.0,1.0,39,0.00,,,0.14,,2013-05-01 17:12:00,
2013-05-01 12:22:00,56.0,31.0,28.93,North,0,0.0,0.0,39,0.00,,,0.14,,2013-05-01 17:22:00,
2013-05-01 12:32:00,47.0,26.0,28.93,SSW,211,1.0,1.0,43,0.00,,,0.14,,2013-05-01 17:32:00,
2013-05-01 12:42:00,47.0,26.0,28.93,SSW,211,1.0,1.0,43,0.00,,,0.14,,2013-05-01 17:42:00,
2013-05-01 12:52:00,47.0,26.0,28.93,SSW,211,1.0,1.0,43,0.00,,,0.14,,2013-05-01 17:52:00,
2013-05-01 13:01:00,47.0,26.0,28.93,SSW,211,1.0,1.0,43,0.00,,,0.14,,2013-05-01 18:01:00,
2013-05-01 13:22:00,44.0,24.0,28.93,WSW,251,1.0,1.0,45,0.00,,,0.14,,2013-05-01 18:22:00,
2013-05-01 13:32:00,41.0,25.0,28.96,WSW,248,0.0,1.0,52,0.00,,,0.14,,2013-05-01 18:32:00,
2013-05-01 13:42:00,41.0,25.0,28.96,WSW,248,0.0,1.0,52,0.00,,,0.14,,2013-05-01 18:42:00,
2013-05-01 13:52:00,41.0,25.0,28.95,NE,45,0.0,1.0,52,0.00,,,0.14,,2013-05-01 18:52:00,
2013-05-01 14:02:00,40.0,24.0,28.96,WSW,248,0.0,1.0,53,0.00,,,0.14,,2013-05-01 19:02:00,
2013-05-01 14:11:00,40.0,24.0,28.96,WSW,248,0.0,1.0,53,0.00,,,0.14,,2013-05-01 19:11:00,
2013-05-01 14:22:00,41.0,25.0,28.97,SW,225,0.0,1.0,53,0.00,,,0.14,,2013-05-01 19:22:00,
2013-05-01 14:32:00,41.0,25.0,28.97,WNW,299,0.0,1.0,53,0.00,,,0.00,,2013-05-01 19:32:00,
2013-05-01 14:43:00,41.0,25.0,28.97,WNW,299,0.0,1.0,53,0.00,,,0.00,,2013-05-01 19:43:00,
2013-05-01 14:52:00,41.0,25.0,28.97,West,270,0.0,1.0,53,0.00,,,0.00,,2013-05-01 19:52:00,
2013-05-01 15:02:00,41.0,26.0,28.98,WNW,293,0.0,1.0,54,0.00,,,0.00,,2013-05-01 20:02:00,
2013-05-01 15:11:00,41.0,26.0,28.98,WNW,293,0.0,1.0,54,0.00,,,0.00,,2013-05-01 20:11:00,
2013-05-01 15:21:00,41.0,26.0,28.98,West,270,1.0,1.0,54,0.00,,,0.00,,2013-05-01 20:21:00,
2013-05-01 15:32:00,41.0,26.0,28.98,WSW,243,0.0,2.0,54,0.00,,,0.00,,2013-05-01 20:32:00,
2013-05-01 15:42:00,41.0,26.0,28.98,WSW,243,0.0,2.0,54,0.00,,,0.00,,2013-05-01 20:42:00,
2013-05-01 15:52:00,41.0,26.0,28.99,NW,318,1.0,1.0,54,0.00,,,0.00,,2013-05-01 20:52:00,
2013-05-01 16:01:00,41.0,26.0,28.99,North,7,0.0,1.0,55,0.00,,,0.00,,2013-05-01 21:01:00,
2013-05-01 16:11:00,41.0,26.0,28.99,North,7,0.0,1.0,55,0.00,,,0.00,,2013-05-01 21:11:00,
2013-05-01 16:22:00,41.0,26.0,29.00,SW,225,0.0,1.0,55,0.00,,,0.00,,2013-05-01 21:22:00,
2013-05-01 16:32:00,41.0,27.0,29.01,NNE,23,0.0,1.0,56,0.00,,,0.00,,2013-05-01 21:32:00,
2013-05-01 16:43:00,40.0,26.0,29.01,NNE,23,0.0,1.0,56,0.00,,,0.00,,2013-05-01 21:43:00,
2013-05-01 16:53:00,40.0,26.0,29.01,NNE,23,0.0,1.0,56,0.00,,,0.00,,2013-05-01 21:53:00,
2013-05-01 17:03:00,40.0,26.0,29.01,WSW,248,0.0,0.0,56,0.00,,,0.00,,2013-05-01 22:03:00,
2013-05-01 17:12:00,40.0,26.0,29.01,WSW,248,0.0,0.0,56,0.00,,,0.00,,2013-05-01 22:12:00,
2013-05-01 17:23:00,40.0,26.0,29.01,West,270,0.0,2.0,57,0.00,,,0.00,,2013-05-01 22:23:00,
2013-05-01 17:33:00,40.0,26.0,29.02,NNE,23,0.0,0.0,57,0.00,,,0.00,,2013-05-01 22:33:00,
2013-05-01 17:42:00,40.0,26.0,29.02,NNE,23,0.0,0.0,57,0.00,,,0.00,,2013-05-01 22:42:00,
2013-05-01 17:52:00,40.0,26.0,29.02,West,276,1.0,1.0,57,0.00,,,0.00,,2013-05-01 22:52:00,
2013-05-01 18:02:00,40.0,26.0,29.03,North,8,0.0,1.0,58,0.00,,,0.00,,2013-05-01 23:02:00,
2013-05-01 18:12:00,40.0,26.0,29.03,North,8,0.0,1.0,58,0.00,,,0.00,,2013-05-01 23:12:00,
2013-05-01 18:21:00,40.0,27.0,29.04,West,265,0.0,1.0,59,0.00,,,0.00,,2013-05-01 23:21:00,
2013-05-01 18:32:00,40.0,27.0,29.04,SSW,203,0.0,1.0,59,0.00,,,0.00,,2013-05-01 23:32:00,
2013-05-01 18:42:00,40.0,27.0,29.04,SSW,203,0.0,1.0,59,0.00,,,0.00,,2013-05-01 23:42:00,
2013-05-01 18:52:00,39.0,26.0,29.05,West,270,0.0,1.0,60,0.00,,,0.00,,2013-05-01 23:52:00,
2013-05-01 19:01:00,39.0,26.0,29.06,SSW,203,0.0,0.0,60,0.00,,,0.00,,2013-05-02 00:01:00,
2013-05-01 19:11:00,39.0,26.0,29.06,SSW,203,0.0,0.0,60,0.00,,,0.00,,2013-05-02 00:11:00,
2013-05-01 19:21:00,39.0,27.0,29.06,South,180,0.0,0.0,61,0.00,,,0.00,,2013-05-02 00:21:00,
2013-05-01 19:32:00,39.0,27.0,29.07,North,0,0.0,0.0,62,0.00,,,0.00,,2013-05-02 00:32:00,
2013-05-01 19:42:00,39.0,27.0,29.07,North,0,0.0,0.0,62,0.00,,,0.00,,2013-05-02 00:42:00,
2013-05-01 19:52:00,39.0,27.0,29.08,North,0,0.0,0.0,61,0.00,,,0.00,,2013-05-02 00:52:00,
2013-05-01 20:01:00,39.0,27.0,29.08,North,0,0.0,0.0,62,0.00,,,0.00,,2013-05-02 01:01:00,
2013-05-01 20:11:00,39.0,27.0,29.08,North,0,0.0,0.0,62,0.00,,,0.00,,2013-05-02 01:11:00,
2013-05-01 20:22:00,38.0,27.0,29.09,North,0,0.0,0.0,63,0.00,,,0.00,,2013-05-02 01:22:00,
2013-05-01 20:32:00,38.0,26.0,29.10,North,0,0.0,0.0,62,0.00,,,0.00,,2013-05-02 01:32:00,
2013-05-01 20:42:00,38.0,26.0,29.10,North,0,0.0,0.0,62,0.00,,,0.00,,2013-05-02 01:42:00,
2013-05-01 20:52:00,37.0,26.0,29.11,NNE,23,1.0,2.0,63,0.00,,,0.00,,2013-05-02 01:52:00,
2013-05-01 21:02:00,37.0,26.0,29.11,NNE,23,0.0,1.0,63,0.00,,,0.00,,2013-05-02 02:02:00,
2013-05-01 21:12:00,37.0,26.0,29.11,NNE,23,0.0,1.0,63,0.00,,,0.00,,2013-05-02 02:12:00,
2013-05-01 21:21:00,37.0,26.0,29.11,SW,225,0.0,0.0,64,0.00,,,0.00,,2013-05-02 02:21:00,
2013-05-01 21:32:00,37.0,26.0,29.12,WSW,248,0.0,1.0,64,0.00,,,0.00,,2013-05-02 02:32:00,
2013-05-01 21:42:00,37.0,26.0,29.12,WSW,248,0.0,1.0,64,0.00,,,0.00,,2013-05-02 02:42:00,
2013-05-01 21:51:00,37.0,26.0,29.12,WSW,248,0.0,1.0,64,0.00,,,0.00,,2013-05-02 02:51:00,
2013-05-01 22:01:00,37.0,26.0,29.12,SSE,158,1.0,1.0,64,0.00,,,0.00,,2013-05-02 03:01:00,
2013-05-01 22:11:00,37.0,26.0,29.12,SSE,158,1.0,1.0,64,0.00,,,0.00,,2013-05-02 03:11:00,
2013-05-01 22:22:00,36.0,25.0,29.12,NW,315,0.0,0.0,65,0.00,,,0.00,,2013-05-02 03:22:00,
2013-05-01 22:33:00,36.0,25.0,29.13,WSW,248,0.0,0.0,65,0.00,,,0.00,,2013-05-02 03:33:00,
2013-05-01 22:43:00,36.0,25.0,29.13,WSW,248,0.0,0.0,65,0.00,,,0.00,,2013-05-02 03:43:00,
2013-05-01 22:53:00,35.0,24.0,29.13,WSW,248,0.0,0.0,65,0.00,,,0.00,,2013-05-02 03:53:00,
2013-05-01 23:03:00,35.0,24.0,29.13,West,270,0.0,1.0,65,0.00,,,0.00,,2013-05-02 04:03:00,
2013-05-01 23:12:00,35.0,24.0,29.13,West,270,0.0,1.0,65,0.00,,,0.00,,2013-05-02 04:12:00,
2013-05-01 23:23:00,35.0,24.0,29.13,West,270,0.0,1.0,65,0.00,,,0.00,,2013-05-02 04:23:00,
2013-05-01 23:33:00,34.0,24.0,29.13,SW,225,0.0,2.0,66,0.00,,,0.00,,2013-05-02 04:33:00,
2013-05-01 23:42:00,34.0,24.0,29.13,SW,225,0.0,2.0,66,0.00,,,0.00,,2013-05-02 04:42:00,
2013-05-01 23:52:00,34.0,24.0,29.13,SW,225,0.0,0.0,66,0.00,,,0.00,,2013-05-02 04:52:00,